Presure
180 174 184 188 179 164 168 166 162 170 159 162 161 161 171 169 175 175 173 177 160 179 193 201 201 190 162 180 176 179 183 176 151 142 126 164 167 157 161 195 190 165 157 149 144 143 141
184 203 191 189 193 150 169 160 171 169 160 163 171 168 169 165 172 181 185 192 183 187 180 205 228 227 228 234 246 243 224 221 192 222 219 212 158 136 147 163 197 188 184 191 187 153 149
184 192 165 177 180 179 174 174 179 172 173 169 174 177 172 176 182 190 202 203 251 260 253 253 257 261 271 213 203 196 131 260 210 142 268 269 255 233 143 173 149 229 215 202 150 222 214
187 193 186 162 155 184 180 177 181 177 176 179 177 178 182 191 194 205 241 205 204 214 233 235 217 236 214 225 235 173 243 250 238 245 255 248 195 172 131 226 248 163 146 218 234 248 169
197 192 190 193 191 185 183 183 182 180 172 179 189 192 212 231 229 226 197 201 239 239 226 170 201 171 210 197 175 161 164 221 185 173 233 244 233 229 236 241 247 235 205 228 208 139 137
148 175 193 192 192 192 192 192 191 190 186 203 227 223 213 211 248 206 170 214 190 187 197 184 195 187 190 191 201 207 216 176 193 190 162 207 207 211 212 208 235 230 233 206 155 153 201
151 159 173 135 158 190 192 251 250 162 224 196 191 169 177 195 202 155 213 192 181 186 194 181 155 194 176 188 198 196 184 199 185 198 233 172 239 230 194 235 220 236 241 216 223 225 244
176 138 138 132 131 145 155 166 184 175 159 179 182 188 194 179 154 146 183 182 176 178 185 176 145 209 211 175 185 224 184 184 193 211 184 216 231 187 192 199 198 203 241 223 253 250 251
192 150 148 165 202 139 171 199 157 196 187 206 185 171 137 128 167 178 153 179 183 169 172 179 173 199 182 183 194 200 197 188 187 200 176 215 219 190 216 214 227 225 222 240 251 250 257
188 174 167 162 168 183 180 152 192 141 178 178 145 148 178 180 160 197 158 211 141 194 188 216 179 210 204 211 179 180 214 224 212 220 224 232 207 223 216 215 231 227 190 243 252 257 279
195 193 163 183 197 192 166 185 180 182 175 180 140 133 186 171 215 127 139 181 177 181 171 209 194 207 198 209 213 218 210 221 198 198 235 229 228 199 195 212 216 231 236 245 246 258 291
135 167 172 169 148 128 191 187 177 175 176 174 194 174 168 202 193 170 167 186 164 174 177 172 178 194 197 191 182 195 215 209 196 228 227 188 209 220 196 203 219 237 243 237 260 274 314
183 163 167 185 190 157 149 160 169 169 135 156 160 164 175 160 191 190 193 188 181 166 183 176 167 213 196 219 210 185 197 226 226 227 234 232 224 213 207 227 234 238 235 247 273 272 353
160 177 191 162 185 176 154 162 153 130 196 165 191 194 183 182 190 182 174 163 196 206 163 195 199 195 213 173 175 217 221 214 219 233 192 235 222 208 219 237 236 236 234 260 283 287 349
179 187 172 165 176 161 170 176 169 190 192 163 177 202 179 186 181 175 186 195 197 197 187 201 201 203 173 173 208 228 187 179 235 231 227 235 236 235 236 231 228 234 259 264 275 346 344
180 185 188 167 178 175 164 178 176 176 172 186 178 181 165 186 184 163 180 175 174 183 204 175 210 204 210 203 232 232 230 199 237 227 225 236 236 238 231 230 252 246 256 270 279 333 330
172 179 181 180 187 175 178 183 185 173 156 150 190 160 146 187 167 170 174 205 189 206 195 176 181 209 210 222 226 229 235 238 228 223 202 234 238 246 245 241 259 261 264 279 310 327 319
164 179 164 185 192 179 183 183 185 185 183 194 188 184 186 172 184 194 197 159 204 186 194 210 172 206 241 227 200 240 229 219 229 228 234 221 228 252 251 241 266 276 282 303 332 324 319
182 173 179 172 190 190 185 186 188 174 191 194 175 184 173 181 166 178 197 207 188 193 199 180 210 224 232 227 221 235 231 229 231 230 232 247 253 257 270 273 277 289 327 326 321 324 328
166 172 179 177 185 187 191 184 167 184 180 185 174 169 189 173 200 193 198 180 215 212 166 213 214 225 223 236 235 237 237 240 233 246 242 243 270 285 293 299 325 349 335 317 316 322 317
184 184 183 171 187 181 189 189 186 184 180 196 189 176 203 205 174 206 173 201 201 195 217 199 209 229 222 233 244 245 237 247 248 248 259 279 298 309 356 358 344 329 326 323 319 321 325
183 193 188 185 186 195 190 189 184 182 194 217 196 175 196 176 194 208 198 225 208 205 210 220 226 223 242 225 251 241 227 259 260 297 310 343 347 322 335 336 334 336 332 328 313 315 319
194 185 186 184 192 186 166 195 195 168 202 191 209 195 192 180 180 204 211 216 195 213 218 218 210 238 232 250 243 233 268 312 360 347 320 346 344 302 337 324 323 334 328 321 315 315 307
199 170 170 172 195 183 189 184 188 201 192 156 195 198 199 192 171 190 197 206 214 209 204 227 231 236 247 240 251 335 343 325 314 333 350 344 337 404 409 298 303 296 292 315 317 314 310
135 175 173 183 186 194 199 195 174 187 210 183 205 164 169 203 208 218 202 218 206 220 229 244 252 250 229 297 326 319 320 317 329 314 470 486 482 465 453 479 444 402 302 286 307 305 308
172 182 194 182 187 185 167 179 194 191 181 199 197 198 173 211 206 206 215 208 217 231 240 232 255 245 337 325 315 312 443 412 428 415 438 393 470 453 407 414 415 474 386 300 280 279 289
189 167 194 151 188 189 198 162 194 189 192 195 180 203 215 205 197 192 206 201 233 241 233 253 244 329 319 301 346 329 417 408 403 404 390 374 445 433 403 369 378 386 394 365 297 285 285
198 193 184 174 181 187 198 180 198 171 197 168 224 204 200 204 214 196 223 231 250 247 251 243 350 308 299 332 413 393 386 383 395 386 381 368 427 419 414 389 361 373 394 371 353 300 290
190 191 189 178 144 195 205 198 188 186 184 203 207 213 208 215 201 225 235 250 228 254 325 327 307 348 417 411 395 380 366 364 377 374 370 440 427 405 402 394 395 362 381 378 370 337 301
Wind_Speed
31 30 31 30 33 33 34 33 35 37 38 40 42 42 45 45 46 44 43 45 36 44 49 48 48 46 42 43 41 41 43 42 44 44 39 44 44 43 46 52 53 50 51 49 47 46 45
28 34 31 30 32 32 36 37 39 40 41 43 45 45 47 45 48 51 53 53 49 48 47 49 47 47 46 46 46 46 46 46 49 50 50 52 46 46 50 52 57 57 58 59 58 53 52
29 31 30 31 32 34 38 39 40 43 44 45 47 49 49 53 53 54 53 53 35 30 33 35 33 28 19 41 42 43 46 31 43 47 33 37 48 52 49 51 53 62 65 64 56 67 68
30 29 31 31 33 34 37 39 40 42 45 46 48 50 52 53 52 50 33 45 49 44 33 31 35 32 37 37 33 42 27 26 39 35 26 33 35 48 49 49 53 56 58 49 50 61 57
28 28 29 32 32 35 38 38 39 41 42 44 47 48 42 37 34 35 44 40 22 23 31 43 37 45 38 45 46 47 47 43 46 52 42 39 49 51 49 46 45 50 61 59 61 53 52
21 24 32 32 33 34 35 37 38 39 40 44 36 30 36 40 14 41 43 37 46 36 40 44 47 48 47 47 48 46 37 52 50 50 56 54 56 56 55 58 54 59 59 57 53 54 62
29 26 28 24 27 34 36 24 23 34 21 36 40 42 44 40 37 40 26 48 50 43 49 51 46 55 51 57 57 60 50 59 53 61 42 60 49 52 60 51 61 58 59 67 70 71 61
27 26 28 26 28 31 34 35 37 33 37 39 39 38 37 44 39 41 48 49 52 56 58 52 50 47 48 55 59 53 59 59 65 57 58 60 53 64 68 71 70 63 65 72 69 68 66
27 29 25 27 25 36 30 26 37 30 35 30 38 42 38 39 46 47 47 52 55 52 56 63 58 54 66 68 70 64 65 70 68 62 62 63 64 72 66 69 69 68 73 71 73 73 73
30 32 33 31 35 34 34 30 32 39 40 40 44 46 47 50 50 44 49 45 49 57 59 51 69 55 59 62 70 70 58 59 61 65 61 56 71 65 69 74 75 71 71 81 82 79 73
31 29 37 34 26 33 40 36 39 40 45 43 41 40 50 53 38 41 47 62 56 55 64 53 64 56 63 65 67 65 66 67 80 77 62 64 63 76 76 77 80 79 83 86 84 85 79
41 39 38 40 43 36 40 37 44 44 44 44 43 49 49 44 50 60 61 62 63 68 63 70 68 66 65 73 75 74 72 71 74 67 67 65 68 73 74 78 81 89 89 85 92 88 78
42 41 45 41 36 45 44 45 46 46 41 49 52 55 56 60 53 58 58 63 68 69 67 72 65 71 70 73 72 77 80 74 75 73 67 66 70 76 76 84 87 90 87 91 90 84 65
44 45 47 48 43 45 50 52 49 42 42 57 45 48 53 51 53 60 68 72 64 61 63 62 68 76 77 78 80 80 80 77 80 77 74 72 68 81 82 90 90 90 91 93 95 88 62
49 51 52 51 51 52 52 49 53 56 51 59 51 56 53 56 59 68 64 66 65 67 68 70 74 76 82 77 84 83 80 79 80 79 82 84 77 80 86 87 89 92 92 94 90 71 63
55 54 57 51 56 54 53 53 54 54 54 56 55 53 62 61 65 68 69 72 78 74 78 80 84 82 86 84 85 83 80 88 79 83 88 89 88 81 88 90 93 92 92 94 91 69 64
59 59 59 62 62 58 60 60 60 58 61 56 63 62 61 65 72 76 75 80 71 84 79 84 84 88 91 90 85 86 83 82 84 89 90 95 97 88 90 92 99 99 95 97 81 67 65
58 64 57 63 63 63 64 64 66 63 63 71 65 63 65 67 72 77 80 81 85 79 87 96 86 94 91 89 87 88 89 92 91 94 98 101 101 100 96 95 105 103 100 91 67 64 63
68 66 67 62 66 67 67 68 71 60 73 73 61 67 66 72 79 77 85 92 82 87 92 93 101 102 99 97 95 94 93 95 97 100 103 102 106 106 108 106 104 102 82 69 65 62 57
61 65 68 67 68 71 72 69 58 69 65 68 72 70 79 72 81 82 83 83 101 97 88 104 102 106 105 103 102 100 99 98 102 105 107 108 114 115 113 105 91 73 66 64 64 62 56
68 69 69 64 73 70 73 72 72 70 69 83 76 73 83 86 79 94 88 96 95 94 110 96 103 110 107 107 103 102 105 106 106 109 116 123 117 113 94 84 78 73 67 62 63 57 57
68 72 72 71 73 77 75 78 73 71 81 85 79 77 82 78 83 102 96 108 99 104 108 119 115 114 115 111 111 108 107 115 109 114 112 105 105 98 88 82 78 71 65 61 60 58 52
71 70 70 71 76 73 63 80 77 67 75 69 95 83 88 84 79 103 110 109 95 113 121 114 109 112 115 115 115 113 120 118 106 100 93 92 91 91 84 79 77 73 63 60 59 57 55
74 57 62 65 79 75 74 73 73 87 76 73 84 86 92 84 91 102 96 108 117 115 114 126 117 119 119 119 120 114 105 102 99 95 94 90 86 69 69 79 77 69 65 62 61 58 55
43 66 63 76 77 82 88 87 57 80 98 71 102 83 78 113 117 124 113 124 115 131 128 125 122 122 118 123 110 103 100 97 94 93 38 34 37 40 42 36 56 67 71 63 60 60 58
55 75 82 76 83 76 77 64 89 82 68 96 92 99 93 124 119 118 126 120 131 128 127 125 125 124 115 108 106 104 62 66 52 51 40 49 29 28 35 34 35 36 63 66 67 64 63
83 59 88 60 81 76 90 80 89 78 91 88 79 105 119 115 106 105 120 111 126 126 123 123 123 111 108 108 100 98 54 54 50 42 41 42 25 24 33 41 43 46 50 63 75 75 65
91 90 86 55 67 79 103 63 101 80 94 84 116 115 108 120 130 106 131 128 124 121 124 124 102 107 106 97 55 59 56 53 45 41 37 38 22 26 33 42 49 47 45 62 75 79 70
85 91 93 62 67 95 104 99 75 87 83 117 123 124 126 129 116 130 126 125 121 126 108 107 107 97 53 48 50 52 53 53 46 39 38 27 25 23 32 42 47 51 50 53 64 77 75
Wind_Direction
249 253 263 265 254 259 261 265 266 271 268 271 274 280 284 286 288 290 288 290 284 294 295 292 290 292 282 293 289 288 287 280 270 268 266 273 275 271 269 272 269 262 258 255 256 256 255
268 269 265 261 262 272 262 267 267 267 272 275 277 281 284 286 290 292 293 294 294 297 296 298 295 292 292 292 288 288 287 286 277 279 277 273 268 266 265 267 270 265 265 267 267 258 258
271 265 267 262 262 261 262 265 267 269 271 278 279 281 285 288 291 295 298 298 301 303 297 299 294 301 304 293 289 287 263 294 283 269 293 287 279 274 267 269 268 270 271 271 263 269 270
274 268 265 267 273 270 269 270 272 273 277 279 283 286 287 291 294 298 303 303 303 304 306 304 300 306 306 305 298 283 290 301 284 281 283 283 272 271 266 271 274 268 267 273 274 272 265
271 272 275 277 274 270 273 275 278 280 280 285 287 291 295 301 304 304 301 303 325 317 313 294 302 294 299 300 286 279 282 294 285 282 285 290 283 282 279 279 277 277 272 271 269 266 266
281 279 277 280 281 281 281 282 284 287 289 291 298 299 300 304 317 307 295 314 302 302 301 298 311 302 305 301 304 303 292 284 284 287 279 293 292 289 289 286 275 276 274 270 260 260 271
276 277 284 285 281 289 289 294 296 282 298 291 293 293 299 306 309 289 310 311 304 297 309 306 283 309 294 308 306 304 294 299 293 300 301 283 306 280 286 283 286 280 282 282 276 276 274
284 277 277 278 281 286 282 289 292 286 286 290 292 301 305 297 287 286 306 308 303 306 307 301 280 303 309 296 301 314 296 290 299 290 295 299 295 289 292 288 285 282 288 282 297 290 281
284 284 280 285 295 280 293 298 286 301 297 304 301 297 283 280 293 296 293 300 302 296 302 304 302 290 299 302 294 288 291 295 297 295 290 296 289 293 284 284 284 284 282 286 293 287 287
294 286 288 287 286 297 299 289 301 284 297 303 288 290 303 303 287 286 295 303 288 299 302 305 302 302 298 305 301 299 302 309 298 306 302 299 291 293 289 288 291 288 283 295 296 294 298
300 296 288 293 290 286 288 291 298 297 299 299 286 282 293 301 325 278 282 294 303 299 304 300 297 308 297 307 307 310 300 308 290 290 300 295 294 288 290 289 289 293 295 296 295 297 300
272 285 298 292 276 283 288 281 293 297 293 293 302 295 294 312 301 297 297 299 293 297 303 298 301 300 299 297 298 296 308 298 299 301 297 290 291 289 289 289 292 296 296 294 299 301 301
292 285 288 289 285 293 288 296 282 286 288 298 295 298 295 297 309 305 306 307 302 298 297 295 297 307 298 311 309 300 300 306 302 296 293 294 292 292 292 293 294 295 295 298 300 299 294
282 286 292 284 293 276 295 291 292 284 299 293 301 303 292 299 306 296 298 298 309 311 299 302 307 303 314 300 299 308 306 301 299 300 295 298 291 293 295 297 297 297 296 301 303 304 288
286 283 286 286 288 285 288 290 290 298 303 291 295 314 293 306 300 298 305 308 309 313 297 313 310 310 296 300 305 306 298 298 305 304 301 299 297 296 295 294 296 295 301 302 303 291 283
288 288 287 285 290 292 291 291 291 293 288 305 297 302 295 309 303 297 301 305 291 303 318 295 315 311 312 306 306 305 305 295 306 301 298 299 297 298 295 296 300 299 301 304 303 288 281
288 288 288 288 289 289 291 293 296 290 291 288 308 296 292 309 291 297 293 320 306 318 308 298 303 313 311 310 308 307 309 306 301 299 300 300 299 300 299 300 304 300 301 302 296 284 281
286 286 287 287 286 289 292 294 295 297 299 303 305 307 306 289 307 312 318 295 319 302 309 315 298 308 315 311 305 312 308 304 303 301 300 299 300 302 302 300 301 301 300 298 282 282 279
279 283 284 288 287 287 290 293 295 294 301 305 297 305 294 304 294 301 316 320 309 308 312 302 313 315 317 314 309 310 306 303 304 302 299 301 301 300 300 298 298 297 294 287 284 280 278
278 282 283 286 287 288 289 293 286 299 301 304 298 297 307 295 314 313 315 296 318 315 298 316 314 317 315 313 310 308 306 304 302 303 302 300 299 299 297 295 291 287 285 282 280 277 276
278 279 280 286 286 288 289 292 296 299 302 302 302 301 313 317 302 319 296 317 315 306 317 301 308 314 311 310 308 307 305 306 305 303 301 298 296 294 290 288 285 285 282 277 275 273 270
275 277 280 285 289 288 292 294 298 297 302 304 305 303 315 292 313 318 315 315 312 311 312 317 314 311 311 308 310 308 306 305 303 298 293 290 291 290 288 286 283 278 274 271 271 268 266
275 279 284 288 290 292 287 294 298 287 303 304 311 311 311 297 300 318 317 316 300 314 315 310 306 310 309 311 309 308 305 299 296 294 292 288 285 287 284 281 276 272 269 266 263 261 261
272 281 284 289 292 292 297 296 299 308 308 295 310 313 312 311 292 305 306 311 315 312 308 312 309 311 311 310 308 302 299 300 300 297 294 290 286 282 276 273 271 270 267 258 256 254 252
273 283 284 292 296 297 300 306 289 306 308 305 312 304 302 318 317 317 314 315 311 314 311 312 312 310 310 308 305 304 302 302 301 299 292 281 280 279 282 273 257 249 257 258 252 251 247
281 290 290 294 300 300 296 291 309 308 302 311 312 310 293 315 313 313 314 311 312 311 311 311 310 310 308 307 307 307 304 304 301 301 298 295 285 260 271 270 258 247 242 245 249 247 246
288 278 291 287 299 301 303 298 307 307 303 309 299 310 314 313 309 303 308 305 311 311 310 309 310 311 310 310 308 308 307 305 305 304 298 297 277 257 239 257 255 249 241 232 238 243 241
286 290 294 292 297 305 303 301 307 288 304 291 309 315 308 312 312 303 310 309 312 310 309 310 311 312 310 310 307 307 307 308 309 306 303 296 286 257 239 234 248 250 247 233 229 237 239
286 288 290 297 285 300 299 306 307 299 308 310 312 311 312 311 305 309 310 311 308 310 313 313 312 313 310 307 307 308 308 308 309 309 307 299 287 265 245 236 234 242 239 237 233 230 234